Location: Unspecified
(0.0000°N, 0.0000°E)
Time: 19:31:59
(UTC+02:00)

Iridium 12 - Visible Passes

Search period start: 02 September 2014 00:00
Search period end: 12 September 2014 00:00
Orbit: 776 x 779 km, 86.4° (Epoch: 02 September)

Date Brightness Start Highest point End Pass type
(mag) Time Alt. Az. Time Alt. Az. Time Alt. Az.
02 Sep 6.3 06:35:26 10° SSE 06:40:30 52° E 06:45:32 10° NNE visible
03 Sep 7.8 06:02:56 10° SE 06:07:02 24° E 06:11:07 10° NE visible
04 Sep 5.9 07:09:07 10° SSW 07:14:00 42° W 07:18:53 10° NNW visible
05 Sep 5.5 06:35:20 10° S 06:40:33 86° E 06:45:45 10° N visible
06 Sep 6.9 06:02:17 10° SSE 06:07:06 38° E 06:11:52 10° NNE visible
07 Sep 8.1 05:30:18 10° SE 05:33:38 17° E 05:36:57 10° NE visible
07 Sep 6.4 07:09:47 10° SW 07:14:03 26° W 07:18:19 10° NW visible
08 Sep 5.5 06:35:29 10° S 06:40:36 58° W 06:45:42 10° NNW visible
09 Sep 5.9 06:02:00 10° S 06:07:09 63° E 06:12:16 10° N visible
10 Sep 7.4 05:29:18 10° SSE 05:33:41 28° E 05:38:03 10° NNE visible
10 Sep 6.9 07:10:59 10° SW 07:14:06 16° W 07:17:13 10° NW visible
11 Sep 8.4 04:59:55 12° E 05:00:14 12° E 05:02:15 10° ENE visible
11 Sep 6.0 06:40:34 35° W 06:40:39 35° W 06:45:22 10° NNW visible
